{"data":{"norad_id":61577,"epoch":"2026-05-25T02:25:59.079072Z","epoch_age_seconds":59551,"freshness":"FRESH","line1":"1 61577U 24187D   26145.10137823  .00000010  00000+0  49397-5 0  9998","line2":"2 61577  53.1599 279.4229 0000948  87.6726 272.4400 15.69710424 92753","mean_motion":15.69710424,"eccentricity":9.48e-5,"inclination_deg":53.1599,"raan_deg":279.4229,"arg_perigee_deg":87.6726,"mean_anomaly_deg":272.44,"bstar":4.9397e-6,"rev_number":9275,"period_min":91.736665437344,"perigee_km":359.08678772584,"apogee_km":360.36428646287,"semimajor_km":6737.8625370944,"source":"CELESTRAK","updated_at":"2026-05-25T13:38:19.402211Z"}}